Time,TemperatureF,DewpointF,PressureIn,WindDirection,WindDirectionDegrees,WindSpeedMPH,WindSpeedGustMPH,Humidity,HourlyPrecipIn,Conditions,Clouds,dailyrainin,SoftwareType,DateUTC
2013-01-30 00:00:00,57.8,50.3,29.91,South,175,3.0,13.0,76,0.00,OVC,OVC,0.00,WeatherDisplay:10.31,2013-01-30 05:00:00,
2013-01-30 00:05:00,57.8,49.9,29.91,South,175,5.0,12.0,75,0.00,OVC,OVC,0.00,WeatherDisplay:10.31,2013-01-30 05:05:00,
2013-01-30 00:10:00,57.8,50.3,29.91,South,173,9.0,12.0,76,0.00,OVC,OVC,0.00,WeatherDisplay:10.31,2013-01-30 05:10:00,
2013-01-30 00:20:00,58.0,50.5,29.91,South,180,7.0,12.0,76,0.00,OVC,OVC,0.00,WeatherDisplay:10.31,2013-01-30 05:20:00,
2013-01-30 00:25:00,58.0,50.5,29.91,South,180,7.0,12.0,76,0.00,OVC,OVC,0.00,WeatherDisplay:10.31,2013-01-30 05:25:00,
2013-01-30 00:30:00,57.8,50.3,29.90,South,181,5.0,12.0,76,0.00,OVC,OVC,0.00,WeatherDisplay:10.31,2013-01-30 05:30:00,
2013-01-30 00:40:00,57.6,50.1,29.90,South,183,5.0,10.0,76,0.00,OVC,OVC,0.00,WeatherDisplay:10.31,2013-01-30 05:40:00,
2013-01-30 00:50:00,57.5,50.3,29.89,South,169,7.0,12.0,77,0.00,OVC,OVC,0.00,WeatherDisplay:10.31,2013-01-30 05:50:00,
2013-01-30 01:00:00,57.3,50.1,29.89,South,176,6.0,12.0,77,0.00,OVC,OVC,0.00,WeatherDisplay:10.31,2013-01-30 06:00:00,
2013-01-30 01:05:00,57.3,50.1,29.88,South,177,7.0,12.0,77,0.00,OVC,OVC,0.00,WeatherDisplay:10.31,2013-01-30 06:05:00,
2013-01-30 01:10:00,57.3,50.5,29.88,South,182,6.0,13.0,78,0.00,OVC,OVC,0.00,WeatherDisplay:10.31,2013-01-30 06:10:00,
2013-01-30 01:20:00,57.3,50.5,29.88,SSW,196,10.0,18.0,78,0.00,OVC,OVC,0.00,WeatherDisplay:10.31,2013-01-30 06:20:00,
2013-01-30 01:30:00,57.5,50.7,29.87,South,179,6.0,13.0,78,0.00,OVC,OVC,0.00,WeatherDisplay:10.31,2013-01-30 06:30:00,
2013-01-30 01:40:00,57.5,50.7,29.86,South,178,6.0,12.0,78,0.00,OVC,OVC,0.00,WeatherDisplay:10.31,2013-01-30 06:40:00,
2013-01-30 01:50:00,57.5,50.7,29.86,South,178,5.0,12.0,78,0.00,OVC,OVC,0.00,WeatherDisplay:10.31,2013-01-30 06:50:00,
2013-01-30 02:00:00,57.6,50.8,29.86,South,188,7.0,15.0,78,0.00,OVC,OVC,0.00,WeatherDisplay:10.31,2013-01-30 07:00:00,
2013-01-30 02:05:00,57.6,50.8,29.86,South,190,6.0,12.0,78,0.00,OVC,OVC,0.00,WeatherDisplay:10.31,2013-01-30 07:05:00,
2013-01-30 02:10:00,57.6,51.1,29.86,South,184,7.0,14.0,79,0.00,OVC,OVC,0.00,WeatherDisplay:10.31,2013-01-30 07:10:00,
2013-01-30 02:20:00,57.6,51.1,29.86,South,184,6.0,14.0,79,0.00,OVC,OVC,0.00,WeatherDisplay:10.31,2013-01-30 07:20:00,
2013-01-30 02:30:00,57.8,51.3,29.86,South,171,6.0,12.0,79,0.00,OVC,OVC,0.00,WeatherDisplay:10.31,2013-01-30 07:30:00,
2013-01-30 02:40:00,58.0,51.5,29.86,South,189,5.0,15.0,79,0.00,OVC,OVC,0.00,WeatherDisplay:10.31,2013-01-30 07:40:00,
2013-01-30 02:50:00,58.1,51.6,29.85,South,183,7.0,13.0,79,0.00,OVC,OVC,0.00,WeatherDisplay:10.31,2013-01-30 07:50:00,
2013-01-30 03:00:00,58.3,51.8,29.85,South,177,5.0,12.0,79,0.00,OVC,OVC,0.00,WeatherDisplay:10.31,2013-01-30 08:00:00,
2013-01-30 03:10:00,58.3,51.8,29.84,SSE,166,5.0,8.0,79,0.00,OVC,OVC,0.00,WeatherDisplay:10.31,2013-01-30 08:10:00,
2013-01-30 03:20:00,58.6,52.1,29.83,SSE,160,3.0,10.0,79,0.00,OVC,OVC,0.00,WeatherDisplay:10.31,2013-01-30 08:20:00,
2013-01-30 03:30:00,58.6,52.1,29.82,SSE,162,5.0,12.0,79,0.00,OVC,OVC,0.00,WeatherDisplay:10.31,2013-01-30 08:30:00,
2013-01-30 03:40:00,58.7,52.5,29.82,South,179,8.0,13.0,80,0.00,OVC,OVC,0.00,WeatherDisplay:10.31,2013-01-30 08:40:00,
2013-01-30 03:50:00,58.9,52.7,29.82,South,173,9.0,17.0,80,0.00,OVC,OVC,0.00,WeatherDisplay:10.31,2013-01-30 08:50:00,
2013-01-30 04:00:00,58.9,52.7,29.81,South,178,9.0,14.0,80,0.00,OVC,OVC,0.00,WeatherDisplay:10.31,2013-01-30 09:00:00,
2013-01-30 04:10:00,58.7,52.9,29.82,South,182,5.0,12.0,81,0.00,OVC,OVC,0.00,WeatherDisplay:10.31,2013-01-30 09:10:00,
2013-01-30 04:20:00,58.6,52.8,29.82,South,180,7.0,15.0,81,0.00,OVC,OVC,0.00,WeatherDisplay:10.31,2013-01-30 09:20:00,
2013-01-30 04:30:00,58.6,53.1,29.81,South,179,7.0,14.0,82,0.00,OVC,OVC,0.00,WeatherDisplay:10.31,2013-01-30 09:30:00,
2013-01-30 04:40:00,58.4,52.9,29.81,South,183,7.0,13.0,82,0.00,OVC,OVC,0.00,WeatherDisplay:10.31,2013-01-30 09:40:00,
2013-01-30 04:50:00,58.4,53.3,29.80,South,172,6.0,12.0,83,0.00,OVC,OVC,0.00,WeatherDisplay:10.31,2013-01-30 09:50:00,
2013-01-30 05:00:00,58.4,53.3,29.80,South,172,5.0,12.0,83,0.00,OVC,OVC,0.00,WeatherDisplay:10.31,2013-01-30 10:00:00,
2013-01-30 05:10:00,58.4,53.3,29.79,South,178,6.0,12.0,83,0.00,OVC,OVC,0.00,WeatherDisplay:10.31,2013-01-30 10:10:00,
2013-01-30 05:20:00,58.4,53.6,29.79,South,173,7.0,12.0,84,0.00,OVC,OVC,0.00,WeatherDisplay:10.31,2013-01-30 10:20:00,
2013-01-30 05:30:00,58.3,53.5,29.79,South,179,7.0,12.0,84,0.00,OVC,OVC,0.00,WeatherDisplay:10.31,2013-01-30 10:30:00,
2013-01-30 05:40:00,58.3,53.5,29.79,South,178,7.0,12.0,84,0.00,OVC,OVC,0.00,WeatherDisplay:10.31,2013-01-30 10:40:00,
2013-01-30 05:50:00,58.3,53.8,29.78,South,180,5.0,10.0,85,0.00,OVC,OVC,0.00,WeatherDisplay:10.31,2013-01-30 10:50:00,
2013-01-30 06:00:00,58.4,53.9,29.77,South,186,8.0,12.0,85,0.00,OVC,OVC,0.00,WeatherDisplay:10.31,2013-01-30 11:00:00,
2013-01-30 06:10:00,58.6,54.1,29.76,South,179,7.0,14.0,85,0.00,OVC,OVC,0.00,WeatherDisplay:10.31,2013-01-30 11:10:00,
2013-01-30 06:20:00,58.7,54.2,29.76,South,181,6.0,12.0,85,0.00,OVC,OVC,0.00,WeatherDisplay:10.31,2013-01-30 11:20:00,
2013-01-30 06:30:00,58.9,54.4,29.74,South,176,7.0,16.0,85,0.00,OVC,OVC,0.00,WeatherDisplay:10.31,2013-01-30 11:30:00,
2013-01-30 06:40:00,59.3,54.8,29.74,South,175,9.0,17.0,85,0.00,OVC,OVC,0.00,WeatherDisplay:10.31,2013-01-30 11:40:00,
2013-01-30 06:50:00,59.6,55.1,29.75,South,191,13.0,25.0,85,0.00,OVC,OVC,0.00,WeatherDisplay:10.31,2013-01-30 11:50:00,
2013-01-30 07:00:00,59.6,54.8,29.76,SSW,202,14.0,21.0,84,0.00,OVC,OVC,0.00,WeatherDisplay:10.31,2013-01-30 12:00:00,
2013-01-30 07:05:00,59.6,54.8,29.77,SSW,202,10.0,21.0,84,0.00,OVC,OVC,0.00,WeatherDisplay:10.31,2013-01-30 12:05:00,
2013-01-30 07:10:00,59.6,54.8,29.77,SSW,204,10.0,17.0,84,0.00,OVC,OVC,0.00,WeatherDisplay:10.31,2013-01-30 12:10:00,
2013-01-30 07:20:00,59.6,54.8,29.77,South,187,9.0,18.0,84,0.00,OVC,OVC,0.00,WeatherDisplay:10.31,2013-01-30 12:20:00,
2013-01-30 07:30:00,59.6,55.1,29.76,South,179,5.0,9.0,85,0.00,OVC,OVC,0.00,WeatherDisplay:10.31,2013-01-30 12:30:00,
2013-01-30 07:40:00,59.6,55.1,29.75,South,171,6.0,12.0,85,0.00,OVC,OVC,0.00,WeatherDisplay:10.31,2013-01-30 12:40:00,
2013-01-30 07:50:00,59.9,55.7,29.75,South,172,9.0,14.0,86,0.00,OVC,OVC,0.00,WeatherDisplay:10.31,2013-01-30 12:50:00,
2013-01-30 08:00:00,60.1,55.9,29.75,South,175,8.0,15.0,86,0.00,OVC,OVC,0.00,WeatherDisplay:10.31,2013-01-30 13:00:00,
2013-01-30 08:05:00,60.2,56.0,29.75,South,187,8.0,16.0,86,0.00,OVC,OVC,0.00,WeatherDisplay:10.31,2013-01-30 13:05:00,
2013-01-30 08:10:00,60.4,56.2,29.76,SSW,195,7.0,14.0,86,0.00,OVC,OVC,0.00,WeatherDisplay:10.31,2013-01-30 13:10:00,
2013-01-30 08:20:00,60.7,56.5,29.76,South,188,10.0,15.0,86,0.00,OVC,OVC,0.00,WeatherDisplay:10.31,2013-01-30 13:20:00,
2013-01-30 08:25:00,60.9,56.7,29.75,SSW,192,14.0,20.0,86,0.00,OVC,OVC,0.00,WeatherDisplay:10.31,2013-01-30 13:25:00,
2013-01-30 08:30:00,61.0,56.8,29.76,SSW,198,10.0,17.0,86,0.00,OVC,OVC,0.00,WeatherDisplay:10.31,2013-01-30 13:30:00,
2013-01-30 08:35:00,61.2,56.7,29.75,SSW,201,8.0,18.0,85,0.00,BKN,BKN,0.00,WeatherDisplay:10.31,2013-01-30 13:35:00,
2013-01-30 08:40:00,61.3,56.8,29.74,SSW,193,10.0,15.0,85,0.00,SCT,SCT,0.00,WeatherDisplay:10.31,2013-01-30 13:40:00,
2013-01-30 08:50:00,61.8,57.2,29.75,South,185,13.0,18.0,85,0.00,BKN,BKN,0.00,WeatherDisplay:10.31,2013-01-30 13:50:00,
2013-01-30 08:55:00,62.0,57.1,29.74,South,182,10.0,20.0,84,0.00,SCT,SCT,0.00,WeatherDisplay:10.31,2013-01-30 13:55:00,
2013-01-30 09:00:00,62.0,57.1,29.74,South,184,7.0,20.0,84,0.00,SCT,SCT,0.00,WeatherDisplay:10.31,2013-01-30 14:00:00,
2013-01-30 09:05:00,62.1,57.2,29.74,South,182,9.0,20.0,84,0.00,SCT,SCT,0.00,WeatherDisplay:10.31,2013-01-30 14:05:00,
2013-01-30 09:10:00,62.1,57.2,29.74,South,182,13.0,25.0,84,0.00,SCT,SCT,0.00,WeatherDisplay:10.31,2013-01-30 14:10:00,
2013-01-30 09:20:00,62.1,57.2,29.73,South,187,12.0,20.0,84,0.00,SCT,SCT,0.00,WeatherDisplay:10.31,2013-01-30 14:20:00,
2013-01-30 09:30:00,62.4,57.2,29.74,South,184,13.0,20.0,83,0.00,SCT,SCT,0.00,WeatherDisplay:10.31,2013-01-30 14:30:00,
2013-01-30 09:35:00,62.6,57.4,29.74,South,190,13.0,16.0,83,0.00,BKN,BKN,0.00,WeatherDisplay:10.31,2013-01-30 14:35:00,
2013-01-30 09:40:00,62.7,57.5,29.73,SSW,193,10.0,18.0,83,0.00,SCT,SCT,0.00,WeatherDisplay:10.31,2013-01-30 14:40:00,
2013-01-30 09:45:00,63.1,57.8,29.73,South,185,9.0,16.0,83,0.00,SCT,SCT,0.00,WeatherDisplay:10.31,2013-01-30 14:45:00,
2013-01-30 09:50:00,63.3,57.8,29.72,South,183,8.0,20.0,82,0.00,FEW,FEW,0.00,WeatherDisplay:10.31,2013-01-30 14:50:00,
2013-01-30 09:55:00,63.6,58.0,29.71,South,185,9.0,20.0,82,0.00,BKN,BKN,0.00,WeatherDisplay:10.31,2013-01-30 14:55:00,
2013-01-30 10:00:00,64.0,58.0,29.71,South,186,13.0,18.0,81,0.00,BKN,BKN,0.00,WeatherDisplay:10.31,2013-01-30 15:00:00,
2013-01-30 10:10:00,64.5,58.2,29.71,South,188,12.0,26.0,80,0.00,OVC,OVC,0.00,WeatherDisplay:10.31,2013-01-30 15:10:00,
2013-01-30 10:20:00,64.8,58.1,29.69,South,189,16.0,30.0,79,0.00,OVC,OVC,0.00,WeatherDisplay:10.31,2013-01-30 15:20:00,
2013-01-30 10:30:00,65.0,58.0,29.69,South,187,18.0,28.0,78,0.00,OVC,OVC,0.00,WeatherDisplay:10.31,2013-01-30 15:30:00,
2013-01-30 10:40:00,65.3,57.9,29.69,South,185,14.0,21.0,77,0.00,OVC,OVC,0.00,WeatherDisplay:10.31,2013-01-30 15:40:00,
2013-01-30 10:50:00,65.6,58.2,29.69,SSW,196,12.0,22.0,77,0.00,OVC,OVC,0.00,WeatherDisplay:10.31,2013-01-30 15:50:00,
2013-01-30 11:00:00,65.8,58.0,29.69,South,181,14.0,25.0,76,0.00,OVC,OVC,0.00,WeatherDisplay:10.31,2013-01-30 16:00:00,
2013-01-30 11:05:00,66.0,58.2,29.68,South,184,16.0,24.0,76,0.00,OVC,OVC,0.00,WeatherDisplay:10.31,2013-01-30 16:05:00,
2013-01-30 11:10:00,66.1,58.3,29.68,South,189,12.0,20.0,76,0.00,OVC,OVC,0.00,WeatherDisplay:10.31,2013-01-30 16:10:00,
2013-01-30 11:20:00,66.4,58.2,29.67,South,185,16.0,25.0,75,0.00,OVC,OVC,0.00,WeatherDisplay:10.31,2013-01-30 16:20:00,
2013-01-30 11:30:00,66.8,58.6,29.66,South,183,20.0,30.0,75,0.00,OVC,OVC,0.00,WeatherDisplay:10.31,2013-01-30 16:30:00,
2013-01-30 11:40:00,66.9,58.3,29.66,South,189,15.0,20.0,74,0.00,OVC,OVC,0.00,WeatherDisplay:10.31,2013-01-30 16:40:00,
2013-01-30 11:50:00,67.3,58.7,29.65,South,190,13.0,29.0,74,0.00,OVC,OVC,0.00,WeatherDisplay:10.31,2013-01-30 16:50:00,
2013-01-30 12:00:00,67.3,58.7,29.63,SSW,192,17.0,25.0,74,0.00,OVC,OVC,0.00,WeatherDisplay:10.31,2013-01-30 17:00:00,
2013-01-30 12:05:00,67.3,58.7,29.63,South,186,8.0,24.0,74,0.00,OVC,OVC,0.00,WeatherDisplay:10.31,2013-01-30 17:05:00,
2013-01-30 12:10:00,67.3,58.7,29.62,South,179,14.0,30.0,74,0.00,OVC,OVC,0.00,WeatherDisplay:10.31,2013-01-30 17:10:00,
2013-01-30 12:20:00,67.6,59.0,29.62,South,187,15.0,26.0,74,0.00,OVC,OVC,0.00,WeatherDisplay:10.31,2013-01-30 17:20:00,
2013-01-30 12:25:00,67.8,59.2,29.62,South,187,12.0,29.0,74,0.00,OVC,OVC,0.00,WeatherDisplay:10.31,2013-01-30 17:25:00,
2013-01-30 12:30:00,67.7,59.1,29.61,South,186,21.0,25.0,74,0.00,OVC,OVC,0.00,WeatherDisplay:10.31,2013-01-30 17:30:00,
2013-01-30 12:40:00,67.4,58.8,29.60,South,179,22.0,35.0,74,0.00,OVC,OVC,0.00,WeatherDisplay:10.31,2013-01-30 17:40:00,
2013-01-30 12:50:00,67.4,58.8,29.59,South,183,13.0,25.0,74,0.00,OVC,OVC,0.00,WeatherDisplay:10.31,2013-01-30 17:50:00,
2013-01-30 13:00:00,67.4,58.8,29.58,South,189,13.0,21.0,74,0.00,OVC,OVC,0.00,WeatherDisplay:10.31,2013-01-30 18:00:00,
2013-01-30 13:05:00,67.4,58.8,29.59,SSW,194,15.0,26.0,74,0.00,OVC,OVC,0.00,WeatherDisplay:10.31,2013-01-30 18:05:00,
2013-01-30 13:10:00,67.4,58.8,29.58,SSW,194,10.0,20.0,74,0.00,OVC,OVC,0.00,WeatherDisplay:10.31,2013-01-30 18:10:00,
2013-01-30 13:20:00,67.4,58.8,29.57,South,190,16.0,24.0,74,0.00,OVC,OVC,0.00,WeatherDisplay:10.31,2013-01-30 18:20:00,
2013-01-30 13:30:00,67.4,58.8,29.57,South,176,12.0,20.0,74,0.00,OVC,OVC,0.00,WeatherDisplay:10.31,2013-01-30 18:30:00,
2013-01-30 13:40:00,67.6,59.0,29.57,South,178,9.0,23.0,74,0.00,OVC,OVC,0.00,WeatherDisplay:10.31,2013-01-30 18:40:00,
2013-01-30 13:50:00,67.9,58.9,29.57,South,190,13.0,20.0,73,0.00,OVC,OVC,0.00,WeatherDisplay:10.31,2013-01-30 18:50:00,
2013-01-30 14:00:00,68.1,59.1,29.56,SSW,199,10.0,23.0,73,0.00,OVC,OVC,0.00,WeatherDisplay:10.31,2013-01-30 19:00:00,
2013-01-30 14:05:00,68.3,58.9,29.56,SSW,192,15.0,20.0,72,0.00,OVC,OVC,0.00,WeatherDisplay:10.31,2013-01-30 19:05:00,
2013-01-30 14:10:00,68.3,58.9,29.56,South,177,14.0,23.0,72,0.00,OVC,OVC,0.00,WeatherDisplay:10.31,2013-01-30 19:10:00,
2013-01-30 14:15:00,68.4,59.0,29.56,South,179,13.0,22.0,72,0.00,OVC,OVC,0.00,WeatherDisplay:10.31,2013-01-30 19:15:00,
2013-01-30 14:20:00,68.6,58.8,29.56,South,189,10.0,22.0,71,0.00,OVC,OVC,0.00,WeatherDisplay:10.31,2013-01-30 19:20:00,
2013-01-30 14:30:00,68.9,58.7,29.56,South,187,12.0,25.0,70,0.00,OVC,OVC,0.00,WeatherDisplay:10.31,2013-01-30 19:30:00,
2013-01-30 14:40:00,69.3,59.1,29.55,South,185,13.0,20.0,70,0.00,OVC,OVC,0.00,WeatherDisplay:10.31,2013-01-30 19:40:00,
2013-01-30 14:50:00,69.8,59.2,29.55,SSW,199,25.0,33.0,69,0.00,OVC,OVC,0.00,WeatherDisplay:10.31,2013-01-30 19:50:00,
2013-01-30 15:00:00,70.1,59.0,29.55,SSW,205,17.0,22.0,68,0.00,OVC,OVC,0.00,WeatherDisplay:10.31,2013-01-30 20:00:00,
2013-01-30 15:05:00,70.3,59.2,29.55,SSW,198,13.0,35.0,68,0.00,OVC,OVC,0.00,WeatherDisplay:10.31,2013-01-30 20:05:00,
2013-01-30 15:10:00,70.4,59.3,29.55,South,190,18.0,28.0,68,0.00,OVC,OVC,0.00,WeatherDisplay:10.31,2013-01-30 20:10:00,
2013-01-30 15:20:00,70.6,59.1,29.55,SSW,207,13.0,35.0,67,0.00,OVC,OVC,0.00,WeatherDisplay:10.31,2013-01-30 20:20:00,
2013-01-30 15:30:00,70.6,59.5,29.55,SSW,203,13.0,29.0,68,0.00,OVC,OVC,0.00,WeatherDisplay:10.31,2013-01-30 20:30:00,
2013-01-30 15:40:00,70.6,59.5,29.55,SSW,204,15.0,35.0,68,0.00,OVC,OVC,0.00,WeatherDisplay:10.31,2013-01-30 20:40:00,
2013-01-30 15:45:00,70.6,59.5,29.54,SSW,203,14.0,24.0,68,0.00,OVC,OVC,0.00,WeatherDisplay:10.31,2013-01-30 20:45:00,
2013-01-30 15:50:00,70.4,59.3,29.54,SSW,195,13.0,21.0,68,0.00,OVC,OVC,0.00,WeatherDisplay:10.31,2013-01-30 20:50:00,
2013-01-30 16:00:00,70.4,59.7,29.54,South,190,15.0,22.0,69,0.00,OVC,OVC,0.00,WeatherDisplay:10.31,2013-01-30 21:00:00,
2013-01-30 16:05:00,70.4,59.7,29.53,South,189,9.0,22.0,69,0.00,OVC,OVC,0.00,WeatherDisplay:10.31,2013-01-30 21:05:00,
2013-01-30 16:10:00,70.4,59.7,29.52,SSW,194,17.0,29.0,69,0.00,OVC,OVC,0.00,WeatherDisplay:10.31,2013-01-30 21:10:00,
2013-01-30 16:20:00,70.3,60.1,29.52,SSW,193,13.0,26.0,70,0.00,OVC,OVC,0.00,WeatherDisplay:10.31,2013-01-30 21:20:00,
2013-01-30 16:30:00,70.1,59.9,29.52,South,189,16.0,29.0,70,0.00,OVC,OVC,0.00,WeatherDisplay:10.31,2013-01-30 21:30:00,
2013-01-30 16:40:00,70.1,59.9,29.53,SSW,198,8.0,20.0,70,0.00,OVC,OVC,0.00,WeatherDisplay:10.31,2013-01-30 21:40:00,
2013-01-30 16:50:00,69.9,59.7,29.51,SSW,192,13.0,23.0,70,0.00,OVC,OVC,0.00,WeatherDisplay:10.31,2013-01-30 21:50:00,
2013-01-30 17:00:00,69.8,59.6,29.51,South,181,14.0,21.0,70,0.00,OVC,OVC,0.00,WeatherDisplay:10.31,2013-01-30 22:00:00,
2013-01-30 17:05:00,69.8,59.6,29.51,South,183,9.0,21.0,70,0.00,OVC,OVC,0.00,WeatherDisplay:10.31,2013-01-30 22:05:00,
2013-01-30 17:10:00,69.6,59.4,29.51,South,187,12.0,22.0,70,0.00,OVC,OVC,0.00,WeatherDisplay:10.31,2013-01-30 22:10:00,
2013-01-30 17:20:00,69.4,59.6,29.51,South,186,13.0,22.0,71,0.00,OVC,OVC,0.00,WeatherDisplay:10.31,2013-01-30 22:20:00,
2013-01-30 17:30:00,69.3,59.9,29.50,South,190,14.0,21.0,72,0.00,OVC,OVC,0.00,WeatherDisplay:10.31,2013-01-30 22:30:00,
2013-01-30 17:40:00,69.1,60.5,29.50,South,178,12.0,22.0,74,0.00,OVC,OVC,0.00,WeatherDisplay:10.31,2013-01-30 22:40:00,
2013-01-30 17:50:00,68.6,60.0,29.48,South,187,15.0,21.0,74,0.00,OVC,OVC,0.00,WeatherDisplay:10.31,2013-01-30 22:50:00,
2013-01-30 18:00:00,68.6,60.0,29.48,South,183,9.0,26.0,74,0.00,OVC,OVC,0.00,WeatherDisplay:10.31,2013-01-30 23:00:00,
2013-01-30 18:05:00,68.8,59.8,29.48,South,172,15.0,25.0,73,0.00,OVC,OVC,0.00,WeatherDisplay:10.31,2013-01-30 23:05:00,
2013-01-30 18:10:00,68.9,59.9,29.47,South,173,13.0,20.0,73,0.00,OVC,OVC,0.00,WeatherDisplay:10.31,2013-01-30 23:10:00,
2013-01-30 18:20:00,68.9,59.9,29.46,SSE,166,8.0,23.0,73,0.00,OVC,OVC,0.00,WeatherDisplay:10.31,2013-01-30 23:20:00,
2013-01-30 18:30:00,68.9,59.5,29.44,South,172,9.0,21.0,72,0.00,OVC,OVC,0.00,WeatherDisplay:10.31,2013-01-30 23:30:00,
2013-01-30 18:40:00,68.8,59.8,29.44,South,176,7.0,21.0,73,0.00,OVC,OVC,0.00,WeatherDisplay:10.31,2013-01-30 23:40:00,
2013-01-30 18:50:00,68.7,59.7,29.44,South,174,10.0,21.0,73,0.00,OVC,OVC,0.00,WeatherDisplay:10.31,2013-01-30 23:50:00,
2013-01-30 18:55:00,68.6,59.6,29.43,South,178,9.0,20.0,73,0.00,OVC,OVC,0.00,WeatherDisplay:10.31,2013-01-30 23:55:00,
2013-01-30 19:05:00,68.4,59.4,29.43,South,178,8.0,18.0,73,0.00,OVC,OVC,0.00,WeatherDisplay:10.31,2013-01-31 00:05:00,
2013-01-30 19:10:00,68.4,59.4,29.43,South,179,15.0,20.0,73,0.00,OVC,OVC,0.00,WeatherDisplay:10.31,2013-01-31 00:10:00,
2013-01-30 19:20:00,68.6,59.2,29.42,South,180,14.0,25.0,72,0.00,OVC,OVC,0.00,WeatherDisplay:10.31,2013-01-31 00:20:00,
2013-01-30 19:30:00,68.8,59.0,29.41,South,179,3.0,18.0,71,0.00,OVC,OVC,0.00,WeatherDisplay:10.31,2013-01-31 00:30:00,
2013-01-30 19:40:00,68.9,58.7,29.41,South,177,10.0,21.0,70,0.00,OVC,OVC,0.00,WeatherDisplay:10.31,2013-01-31 00:40:00,
2013-01-30 19:50:00,69.1,58.9,29.41,South,177,13.0,26.0,70,0.00,OVC,OVC,0.00,WeatherDisplay:10.31,2013-01-31 00:50:00,
2013-01-30 20:00:00,68.5,57.6,29.43,WSW,242,12.0,20.0,68,0.00,OVC,OVC,0.00,WeatherDisplay:10.31,2013-01-31 01:00:00,
2013-01-30 20:05:00,67.0,54.5,29.42,WNW,302,14.0,22.0,64,0.00,OVC,OVC,0.00,WeatherDisplay:10.31,2013-01-31 01:05:00,
2013-01-30 20:10:00,65.7,55.3,29.45,NW,307,13.0,21.0,69,0.09,RA,RA,0.09,WeatherDisplay:10.31,2013-01-31 01:10:00,
2013-01-30 20:20:00,62.5,55.9,29.43,West,277,0.0,0.0,79,0.03,RA,RA,0.31,WeatherDisplay:10.31,2013-01-31 01:20:00,
2013-01-30 20:30:00,60.5,55.3,29.45,West,263,0.0,0.0,83,0.04,RA,RA,0.43,WeatherDisplay:10.31,2013-01-31 01:30:00,
2013-01-30 20:40:00,59.6,55.4,29.42,WSW,237,0.0,0.0,86,0.00,RA,RA,0.48,WeatherDisplay:10.31,2013-01-31 01:40:00,
2013-01-30 20:50:00,59.5,55.6,29.41,WNW,284,0.0,0.0,87,0.00,RA,RA,0.49,WeatherDisplay:10.31,2013-01-31 01:50:00,
2013-01-30 21:00:00,59.3,55.7,29.43,WNW,292,0.0,0.0,88,0.02,RA,RA,0.52,WeatherDisplay:10.31,2013-01-31 02:00:00,
2013-01-30 21:05:00,59.2,55.6,29.40,WNW,292,0.0,0.0,88,0.03,RA,RA,0.55,WeatherDisplay:10.31,2013-01-31 02:05:00,
2013-01-30 21:10:00,58.8,55.6,29.40,WNW,292,0.0,0.0,89,0.01,RA,RA,0.56,WeatherDisplay:10.31,2013-01-31 02:10:00,
2013-01-30 21:20:00,58.4,55.5,29.40,ENE,72,0.0,0.0,90,0.01,RA,RA,0.57,WeatherDisplay:10.31,2013-01-31 02:20:00,
2013-01-30 21:30:00,58.3,55.7,29.37,East,92,0.0,0.0,91,0.00,RA,RA,0.58,WeatherDisplay:10.31,2013-01-31 02:30:00,
2013-01-30 21:40:00,58.0,55.4,29.36,ESE,104,0.0,0.0,91,0.01,RA,RA,0.60,WeatherDisplay:10.31,2013-01-31 02:40:00,
2013-01-30 21:50:00,57.8,55.5,29.34,East,97,0.0,0.0,92,0.04,RA,RA,0.65,WeatherDisplay:10.31,2013-01-31 02:50:00,
2013-01-30 22:00:00,57.8,55.5,29.32,ESE,110,0.0,0.0,92,0.01,RA,RA,0.68,WeatherDisplay:10.31,2013-01-31 03:00:00,
2013-01-30 22:05:00,57.8,55.5,29.31,ESE,103,0.0,0.0,92,0.01,RA,RA,0.69,WeatherDisplay:10.31,2013-01-31 03:05:00,
2013-01-30 22:10:00,57.6,55.6,29.31,East,94,0.0,0.0,93,0.02,RA,RA,0.71,WeatherDisplay:10.31,2013-01-31 03:10:00,
2013-01-30 22:20:00,57.5,55.5,29.29,East,97,0.0,0.0,93,0.01,RA,RA,0.74,WeatherDisplay:10.31,2013-01-31 03:20:00,
2013-01-30 22:30:00,57.3,55.3,29.29,ESE,113,0.0,0.0,93,0.01,RA,RA,0.76,WeatherDisplay:10.31,2013-01-31 03:30:00,
2013-01-30 22:40:00,57.3,55.3,29.28,SE,126,0.0,0.0,93,0.01,RA,RA,0.78,WeatherDisplay:10.31,2013-01-31 03:40:00,
2013-01-30 22:50:00,57.5,55.8,29.26,ESE,122,0.0,0.0,94,0.00,RA,RA,0.79,WeatherDisplay:10.31,2013-01-31 03:50:00,
2013-01-30 23:00:00,57.5,55.8,29.24,ESE,106,0.0,0.0,94,0.01,RA,RA,0.81,WeatherDisplay:10.31,2013-01-31 04:00:00,
2013-01-30 23:05:00,57.5,55.8,29.24,East,94,0.0,0.0,94,0.01,RA,RA,0.82,WeatherDisplay:10.31,2013-01-31 04:05:00,
2013-01-30 23:10:00,57.7,55.9,29.23,East,94,0.0,0.0,94,0.00,RA,RA,0.82,WeatherDisplay:10.31,2013-01-31 04:10:00,
2013-01-30 23:20:00,58.4,57.0,29.21,SE,137,0.0,0.0,95,0.00,RA,RA,0.83,WeatherDisplay:10.31,2013-01-31 04:20:00,
2013-01-30 23:30:00,59.5,58.1,29.19,SSE,148,0.0,0.0,95,0.01,RA,RA,0.84,WeatherDisplay:10.31,2013-01-31 04:30:00,
2013-01-30 23:40:00,60.9,59.5,29.18,South,171,0.0,0.0,95,0.00,OVC,OVC,0.84,WeatherDisplay:10.31,2013-01-31 04:40:00,
2013-01-30 23:50:00,62.1,60.6,29.16,South,169,0.0,0.0,95,0.00,OVC,OVC,0.84,WeatherDisplay:10.31,2013-01-31 04:50:00,